Regional Weather Roundup
Issued by NWS

Home | Current Version | Previous Version | Text Only | Print | Product List | Glossary Off
Versions: 1 2 3 4 5 6 7 8 9 10 11 12 13 14 15 16 17 18 19 20 21 22 23 24 25 26 27 28 29 30 31 32 33 34 35 36 37 38 39 40 41 42 43 44 45 46 47 48 49 50

000
ASUS43 KLMK 181110
RWRKY
KENTUCKY REGIONAL WEATHER ROUNDUP
NATIONAL WEATHER SERVICE LOUISVILLE KY
600 AM EST SAT FEB 18 2017

NOTE "FAIR" INDICATES FEW OR NO CLOUDS BELOW 12,000 FEET
WITH NO SIGNIFICANT WEATHER AND/OR OBSTRUCTIONS TO VISIBILITY.

KYZ001>023-026-027-061>063-070>075-181200-
WESTERN AND SOUTH CENTRAL KENTUCKY

CITY           SKY/WX    TMP DP  RH WIND       PRES   REMARKS
PADUCAH        CLOUDY    54  39  57 SW7       29.87R
HENDERSON      CLOUDY    50  36  57 S8        29.84R
OWENSBORO      CLOUDY    48  38  68 S7        29.86S
HOPKINSVILLE   DRIZZLE   52  41  66 S5        29.89R
BOWLING GREEN  CLOUDY    48  41  76 CALM      29.90R
GLASGOW        LGT RAIN  50  36  58 CALM      29.89F
$$

KYZ024-025-028>034-038-045-046-053-181200-
NORTH CENTRAL KENTUCKY

CITY           SKY/WX    TMP DP  RH WIND       PRES   REMARKS
LOUISVILLE/SDF CLOUDY    52  31  44 SE3       29.86S
LOUISVILLE/LOU CLOUDY    48  32  53 S5        29.87R
FORT KNOX      CLOUDY    50  34  54 S6        29.84F
$$

KYZ035>037-039>044-047>052-055>060-089>105-181200-
NORTHEAST KENTUCKY

CITY           SKY/WX    TMP DP  RH WIND       PRES   REMARKS
LEXINGTON      PTCLDY    47  31  53 S6        29.88F
COVINGTON      CLEAR     41  30  65 S10       29.83F
FRANKFORT      PTCLDY    46  32  58 S6        29.87S
$$

KYZ054-064>069-076>088-106>120-181200-
SOUTHEAST KENTUCKY

CITY           SKY/WX    TMP DP  RH WIND       PRES   REMARKS
JACKSON        CLOUDY    50  30  46 SW5       29.93S
LONDON         CLOUDY    42  31  64 SE3       29.93F
SOMERSET       PTCLDY    43  32  65 CALM      29.93S
MIDDLESBORO    CLOUDY    35  33  91 CALM      29.97S
MONTICELLO     CLOUDY    47  36  65 W12       29.94R
$$





USA.gov is the U.S. government's official web portal to all federal, state and local government web resources and services.